time, beta470, beta532, beta650
yyyy/mm/dd HH:MM:SS.fff, counts, counts, counts
2023/06/20 05:00:03.963, 130, 164, 100
2023/06/20 05:00:05.083, 132, 154, 127
2023/06/20 05:00:06.220, 129, 174, 123
2023/06/20 05:00:07.340, 122, 159, 99
2023/06/20 05:00:08.475, 127, 167, 93
2023/06/20 05:00:09.612, 131, 159, 95
2023/06/20 05:00:10.732, 132, 168, 103
2023/06/20 05:00:11.868, 132, 160, 105
2023/06/20 05:00:13.004, 129, 156, 101
2023/06/20 05:00:14.124, 127, 169, 92
2023/06/20 05:00:15.260, 132, 167, 97
2023/06/20 05:00:16.396, 128, 163, 172
2023/06/20 05:00:17.515, 133, 159, 155
2023/06/20 05:00:18.651, 123, 161, 100
2023/06/20 05:00:19.786, 129, 158, 103
2023/06/20 05:00:20.907, 125, 164, 104
2023/06/20 05:00:22.043, 128, 157, 106
2023/06/20 05:00:23.179, 131, 170, 110
2023/06/20 05:00:24.299, 126, 160, 110
2023/06/20 05:00:25.435, 125, 149, 92
2023/06/20 05:00:26.571, 122, 144, 102
2023/06/20 05:00:27.691, 120, 158, 107
2023/06/20 05:00:28.827, 123, 171, 98
2023/06/20 05:00:29.962, 134, 158, 106
2023/06/20 05:00:31.082, 135, 152, 107
2023/06/20 05:00:32.219, 124, 211, 103
2023/06/20 05:00:33.355, 135, 192, 102
2023/06/20 05:00:34.475, 135, 186, 108
2023/06/20 05:00:35.610, 130, 188, 98
2023/06/20 05:00:36.746, 133, 175, 103
2023/06/20 05:00:37.866, 135, 198, 104
2023/06/20 05:00:39.002, 142, 210, 106
2023/06/20 05:00:40.138, 149, 179, 115
2023/06/20 05:00:41.258, 142, 183, 109
2023/06/20 05:00:42.394, 141, 193, 106
2023/06/20 05:00:43.530, 140, 186, 103
2023/06/20 05:00:44.650, 141, 189, 106
2023/06/20 05:00:45.786, 141, 172, 108
2023/06/20 05:00:46.922, 131, 176, 112
2023/06/20 05:00:48.042, 139, 187, 105
2023/06/20 05:00:49.178, 143, 199, 102
2023/06/20 05:00:50.314, 144, 182, 106
2023/06/20 05:00:51.433, 138, 180, 107
2023/06/20 05:00:52.569, 142, 173, 109
2023/06/20 05:00:53.705, 144, 170, 105
2023/06/20 05:00:54.825, 144, 171, 106
2023/06/20 05:00:55.961, 140, 184, 177
2023/06/20 05:00:57.097, 134, 176, 110
2023/06/20 05:00:58.217, 138, 177, 104
2023/06/20 05:00:59.353, 144, 178, 99
2023/06/20 05:01:00.489, 141, 171, 100
2023/06/20 05:01:01.609, 131, 170, 99
2023/06/20 05:01:02.745, 135, 164, 96
2023/06/20 05:01:03.881, 135, 168, 100
2023/06/20 05:01:05.001, 126, 175, 106
2023/06/20 05:01:06.137, 137, 177, 99
2023/06/20 05:01:07.257, 146, 176, 96
2023/06/20 05:01:08.392, 132, 191, 100
2023/06/20 05:01:09.528, 138, 161, 105
2023/06/20 05:01:10.664, 132, 172, 104
2023/06/20 05:01:11.784, 131, 159, 103
2023/06/20 05:01:12.920, 129, 174, 103
2023/06/20 05:01:14.056, 134, 178, 340
2023/06/20 05:01:15.176, 130, 184, 97
2023/06/20 05:01:16.312, 129, 168, 98
2023/06/20 05:01:17.432, 128, 169, 97
2023/06/20 05:01:18.568, 132, 165, 93
2023/06/20 05:01:19.704, 145, 169, 100
2023/06/20 05:01:20.824, 127, 160, 97
2023/06/20 05:01:21.960, 128, 164, 101
2023/06/20 05:01:23.096, 131, 165, 90
2023/06/20 05:01:24.215, 127, 162, 92
2023/06/20 05:01:25.351, 130, 153, 91
2023/06/20 05:01:26.471, 131, 155, 94
2023/06/20 05:01:27.607, 122, 159, 93
2023/06/20 05:01:28.743, 123, 154, 92
2023/06/20 05:01:29.863, 143, 156, 93
2023/06/20 05:01:30.999, 128, 155, 92
2023/06/20 05:01:32.135, 121, 157, 92
2023/06/20 05:01:33.255, 121, 160, 90
2023/06/20 05:01:34.391, 119, 158, 93
2023/06/20 05:01:35.511, 122, 181, 95
2023/06/20 05:01:36.647, 126, 148, 94
2023/06/20 05:01:37.783, 123, 150, 90
2023/06/20 05:01:38.903, 126, 163, 85
2023/06/20 05:01:40.038, 124, 170, 89
2023/06/20 05:01:41.158, 124, 154, 87
2023/06/20 05:01:42.294, 121, 154, 92
2023/06/20 05:01:43.431, 120, 152, 89
2023/06/20 05:01:44.550, 122, 166, 87
2023/06/20 05:01:45.686, 119, 155, 87
2023/06/20 05:01:46.822, 121, 150, 88
2023/06/20 05:01:47.942, 126, 149, 88
2023/06/20 05:01:49.078, 133, 156, 87
2023/06/20 05:01:50.198, 118, 152, 87
2023/06/20 05:01:51.334, 119, 138, 92
2023/06/20 05:01:52.470, 122, 134, 86
2023/06/20 05:01:53.590, 117, 140, 86
2023/06/20 05:01:54.726, 116, 138, 89
2023/06/20 05:01:55.861, 117, 144, 91
2023/06/20 05:01:56.981, 116, 141, 82
2023/06/20 05:01:58.117, 118, 142, 83
2023/06/20 05:01:59.237, 118, 148, 88
2023/06/20 05:02:00.373, 114, 151, 87
2023/06/20 05:02:01.509, 117, 148, 86
2023/06/20 05:02:02.629, 121, 140, 81
2023/06/20 05:02:03.765, 115, 145, 83
2023/06/20 05:02:04.901, 128, 137, 88
2023/06/20 05:02:06.021, 119, 137, 86
2023/06/20 05:02:07.157, 111, 137, 86
2023/06/20 05:02:08.277, 108, 398, 87
2023/06/20 05:02:09.413, 112, 163, 86
2023/06/20 05:02:10.549, 111, 136, 83
2023/06/20 05:02:11.669, 131, 134, 85
2023/06/20 05:02:12.804, 114, 135, 82
2023/06/20 05:02:13.940, 110, 129, 84
2023/06/20 05:02:15.060, 113, 130, 80
2023/06/20 05:02:16.196, 106, 134, 80
2023/06/20 05:02:17.316, 113, 132, 82
2023/06/20 05:02:18.452, 111, 133, 81
2023/06/20 05:02:19.588, 109, 137, 85
2023/06/20 05:02:20.708, 116, 134, 86
2023/06/20 05:02:21.843, 117, 139, 106
2023/06/20 05:02:22.980, 112, 131, 79
2023/06/20 05:02:24.100, 110, 132, 83
2023/06/20 05:02:25.236, 109, 131, 83
2023/06/20 05:02:26.356, 111, 132, 84
2023/06/20 05:02:27.491, 113, 132, 82
2023/06/20 05:02:28.627, 109, 138, 76
2023/06/20 05:02:29.748, 114, 135, 79
2023/06/20 05:02:30.883, 114, 127, 80
2023/06/20 05:02:32.003, 109, 127, 82
2023/06/20 05:02:33.139, 106, 130, 80
2023/06/20 05:02:34.275, 113, 125, 82
2023/06/20 05:02:35.395, 107, 134, 85
2023/06/20 05:02:36.531, 112, 129, 82
2023/06/20 05:02:37.667, 118, 134, 80
2023/06/20 05:02:38.787, 109, 132, 76
2023/06/20 05:02:39.923, 125, 124, 80
2023/06/20 05:02:41.043, 107, 125, 76
2023/06/20 05:02:42.178, 111, 128, 83
2023/06/20 05:02:43.315, 111, 127, 75
2023/06/20 05:02:44.435, 108, 114, 77
2023/06/20 05:02:45.570, 110, 115, 76
2023/06/20 05:02:46.706, 127, 125, 78
2023/06/20 05:02:47.826, 105, 134, 79
2023/06/20 05:02:48.962, 102, 141, 83
2023/06/20 05:02:50.081, 104, 131, 78
2023/06/20 05:02:51.218, 107, 124, 77
2023/06/20 05:02:52.354, 104, 123, 76
2023/06/20 05:02:53.474, 102, 129, 76
2023/06/20 05:02:54.610, 102, 121, 77
2023/06/20 05:02:55.746, 104, 121, 77
2023/06/20 05:02:56.866, 104, 123, 75
2023/06/20 05:02:58.002, 104, 121, 76
2023/06/20 05:02:59.122, 104, 123, 75
2023/06/20 05:03:00.257, 104, 120, 76
2023/06/20 05:03:01.393, 104, 117, 69
2023/06/20 05:03:02.513, 101, 118, 73
2023/06/20 05:03:03.649, 102, 123, 72
2023/06/20 05:03:04.769, 102, 129, 76
2023/06/20 05:03:05.905, 105, 120, 77
2023/06/20 05:03:07.041, 104, 124, 73
2023/06/20 05:03:08.161, 107, 119, 80
2023/06/20 05:03:09.297, 102, 109, 72
2023/06/20 05:03:10.433, 103, 119, 70
2023/06/20 05:03:11.553, 105, 121, 71
2023/06/20 05:03:12.689, 105, 121, 73
2023/06/20 05:03:13.809, 104, 115, 71
2023/06/20 05:03:14.945, 129, 111, 73
2023/06/20 05:03:16.080, 98, 114, 75
2023/06/20 05:03:17.201, 100, 117, 73
2023/06/20 05:03:18.336, 101, 117, 78
2023/06/20 05:03:19.472, 102, 112, 71
2023/06/20 05:03:20.592, 103, 112, 72
2023/06/20 05:03:21.728, 102, 112, 75
2023/06/20 05:03:22.848, 100, 116, 72
2023/06/20 05:03:23.984, 100, 113, 73
2023/06/20 05:03:25.120, 100, 107, 71
2023/06/20 05:03:26.240, 103, 115, 73
2023/06/20 05:03:27.376, 99, 121, 73
2023/06/20 05:03:28.496, 98, 132, 72
2023/06/20 05:03:29.632, 98, 114, 71
2023/06/20 05:03:30.768, 100, 111, 73
2023/06/20 05:03:31.887, 101, 120, 72
2023/06/20 05:03:33.023, 100, 114, 74
2023/06/20 05:03:34.143, 100, 110, 73
2023/06/20 05:03:35.280, 98, 116, 76
2023/06/20 05:03:36.415, 101, 114, 69
2023/06/20 05:03:37.535, 99, 112, 74
2023/06/20 05:03:38.671, 99, 108, 83
2023/06/20 05:03:39.791, 102, 119, 73
2023/06/20 05:03:40.927, 99, 108, 72
2023/06/20 05:03:42.047, 97, 110, 71
2023/06/20 05:03:43.183, 97, 109, 70
2023/06/20 05:03:44.319, 100, 113, 71
2023/06/20 05:03:45.439, 99, 115, 75
2023/06/20 05:03:46.575, 100, 115, 74
2023/06/20 05:03:47.695, 97, 114, 70
2023/06/20 05:03:48.831, 95, 111, 68
2023/06/20 05:03:49.966, 99, 108, 71
2023/06/20 05:03:51.086, 99, 107, 70
2023/06/20 05:03:52.222, 94, 110, 68
2023/06/20 05:03:53.342, 98, 107, 70
2023/06/20 05:03:54.478, 100, 112, 73
2023/06/20 05:03:55.598, 97, 109, 72
2023/06/20 05:03:56.734, 98, 106, 68
2023/06/20 05:03:57.870, 95, 107, 72
2023/06/20 05:03:58.990, 95, 106, 66
2023/06/20 05:04:00.126, 94, 108, 77
2023/06/20 05:04:01.246, 96, 105, 68
2023/06/20 05:04:02.382, 95, 108, 66
2023/06/20 05:04:03.518, 97, 108, 70
2023/06/20 05:04:04.637, 98, 107, 69
2023/06/20 05:04:05.774, 94, 106, 68
2023/06/20 05:04:06.893, 95, 112, 70
2023/06/20 05:04:08.029, 98, 105, 72
2023/06/20 05:04:09.149, 94, 105, 70
2023/06/20 05:04:10.285, 96, 107, 65
2023/06/20 05:04:11.421, 96, 107, 68
2023/06/20 05:04:12.541, 93, 103, 65
2023/06/20 05:04:13.677, 91, 99, 70
2023/06/20 05:04:14.797, 93, 106, 69
2023/06/20 05:04:15.933, 94, 103, 68
2023/06/20 05:04:17.053, 94, 101, 67
2023/06/20 05:04:18.189, 95, 105, 67
2023/06/20 05:04:19.309, 92, 102, 69
2023/06/20 05:04:20.445, 92, 102, 69
2023/06/20 05:04:21.580, 92, 105, 66
2023/06/20 05:04:22.700, 94, 104, 69
2023/06/20 05:04:23.836, 95, 105, 69
2023/06/20 05:04:24.956, 95, 103, 67
2023/06/20 05:04:26.092, 98, 104, 71
2023/06/20 05:04:27.212, 100, 105, 66
2023/06/20 05:04:28.348, 94, 101, 66
2023/06/20 05:04:29.484, 93, 100, 67
2023/06/20 05:04:30.603, 94, 101, 66
2023/06/20 05:04:31.740, 96, 101, 68
2023/06/20 05:04:32.860, 94, 101, 68
2023/06/20 05:04:33.996, 92, 100, 69
2023/06/20 05:04:35.116, 95, 104, 67
2023/06/20 05:04:36.252, 87, 98, 70
2023/06/20 05:04:37.372, 91, 101, 68
2023/06/20 05:04:38.508, 92, 99, 64
2023/06/20 05:04:39.643, 92, 100, 65
2023/06/20 05:04:40.763, 93, 112, 66
2023/06/20 05:04:41.899, 90, 103, 66
2023/06/20 05:04:43.019, 93, 100, 77
2023/06/20 05:04:44.155, 92, 112, 75
2023/06/20 05:04:45.275, 92, 99, 65
2023/06/20 05:04:46.411, 92, 102, 68
2023/06/20 05:04:47.547, 94, 101, 65
2023/06/20 05:04:48.666, 93, 100, 66
2023/06/20 05:04:49.802, 91, 100, 65
2023/06/20 05:04:50.923, 96, 108, 68
2023/06/20 05:04:52.059, 93, 98, 65
2023/06/20 05:04:53.179, 93, 101, 66
2023/06/20 05:04:54.315, 93, 97, 67
2023/06/20 05:04:55.434, 93, 97, 65
2023/06/20 05:04:56.569, 88, 99, 70
2023/06/20 05:04:57.690, 90, 103, 67
2023/06/20 05:04:58.826, 92, 99, 65
2023/06/20 05:04:59.962, 92, 100, 65
2023/06/20 05:05:01.082, 98, 119, 71
2023/06/20 05:05:02.218, 92, 98, 66
2023/06/20 05:05:03.338, 91, 96, 65
2023/06/20 05:05:04.474, 94, 106, 66
2023/06/20 05:05:05.594, 125, 103, 65
2023/06/20 05:05:06.730, 90, 96, 66
2023/06/20 05:05:07.850, 91, 97, 67
2023/06/20 05:05:08.986, 91, 100, 65
2023/06/20 05:05:10.122, 92, 98, 66
2023/06/20 05:05:11.242, 90, 97, 65
2023/06/20 05:05:12.377, 93, 94, 67
2023/06/20 05:05:13.497, 95, 95, 64
2023/06/20 05:05:14.633, 90, 97, 65
2023/06/20 05:05:15.753, 91, 97, 63
2023/06/20 05:05:16.889, 90, 95, 68
2023/06/20 05:05:18.009, 91, 94, 63
2023/06/20 05:05:19.145, 92, 95, 60
2023/06/20 05:05:20.265, 92, 99, 66
2023/06/20 05:05:21.400, 90, 94, 66
2023/06/20 05:05:22.521, 89, 98, 65
2023/06/20 05:05:23.657, 88, 99, 63
2023/06/20 05:05:24.777, 88, 101, 68
2023/06/20 05:05:25.913, 87, 94, 65
2023/06/20 05:05:27.033, 89, 97, 66
2023/06/20 05:05:28.168, 89, 98, 62
2023/06/20 05:05:29.288, 88, 98, 62
2023/06/20 05:05:30.424, 89, 97, 64
2023/06/20 05:05:31.544, 93, 95, 65
2023/06/20 05:05:32.680, 88, 97, 65
2023/06/20 05:05:33.800, 88, 96, 65
2023/06/20 05:05:34.936, 89, 92, 66
2023/06/20 05:05:36.056, 87, 93, 62
2023/06/20 05:05:37.192, 90, 95, 63
2023/06/20 05:05:38.328, 84, 102, 66
2023/06/20 05:05:39.448, 90, 95, 65
2023/06/20 05:05:40.583, 86, 99, 64
2023/06/20 05:05:41.704, 90, 95, 64
2023/06/20 05:05:42.839, 90, 93, 64
2023/06/20 05:05:43.959, 86, 97, 64
2023/06/20 05:05:45.095, 89, 94, 61
2023/06/20 05:05:46.215, 88, 90, 62
2023/06/20 05:05:47.351, 89, 93, 62
2023/06/20 05:05:48.471, 87, 95, 65
2023/06/20 05:05:49.607, 88, 95, 63
2023/06/20 05:05:50.727, 88, 92, 67
2023/06/20 05:05:51.863, 89, 94, 60
2023/06/20 05:05:52.983, 94, 94, 65
2023/06/20 05:05:54.119, 94, 93, 61
2023/06/20 05:05:55.239, 88, 91, 65
2023/06/20 05:05:56.375, 88, 93, 65
2023/06/20 05:05:57.495, 87, 90, 61
2023/06/20 05:05:58.630, 111, 92, 64
2023/06/20 05:05:59.767, 86, 96, 63
2023/06/20 05:06:00.886, 86, 95, 63
2023/06/20 05:06:02.022, 87, 92, 63
2023/06/20 05:06:03.142, 87, 92, 65
2023/06/20 05:06:04.278, 87, 91, 65
2023/06/20 05:06:05.398, 88, 96, 63
2023/06/20 05:06:06.534, 88, 95, 62
2023/06/20 05:06:07.654, 88, 92, 62
2023/06/20 05:06:08.790, 87, 91, 65
2023/06/20 05:06:09.910, 89, 92, 62
2023/06/20 05:06:11.045, 85, 90, 64
2023/06/20 05:06:12.166, 88, 92, 63
2023/06/20 05:06:13.302, 86, 93, 63
2023/06/20 05:06:14.422, 88, 93, 61
2023/06/20 05:06:15.558, 85, 94, 62
2023/06/20 05:06:16.677, 88, 93, 62
2023/06/20 05:06:17.813, 86, 92, 61
2023/06/20 05:06:18.933, 86, 91, 63
2023/06/20 05:06:20.068, 87, 90, 63
2023/06/20 05:06:21.205, 84, 95, 60
2023/06/20 05:06:22.325, 87, 92, 63
2023/06/20 05:06:23.461, 86, 95, 60
2023/06/20 05:06:24.581, 89, 91, 62
2023/06/20 05:06:25.717, 84, 92, 61
2023/06/20 05:06:26.837, 85, 91, 62
2023/06/20 05:06:27.973, 87, 92, 62
2023/06/20 05:06:29.093, 88, 92, 62
2023/06/20 05:06:30.229, 85, 90, 61
2023/06/20 05:06:31.348, 83, 91, 61
2023/06/20 05:06:32.485, 88, 92, 61
2023/06/20 05:06:33.604, 86, 91, 62
2023/06/20 05:06:34.740, 85, 90, 65
2023/06/20 05:06:35.860, 85, 93, 63
2023/06/20 05:06:36.996, 87, 91, 60
2023/06/20 05:06:38.116, 90, 89, 61
2023/06/20 05:06:39.252, 84, 92, 64
2023/06/20 05:06:40.372, 88, 89, 62
2023/06/20 05:06:41.508, 89, 91, 61
2023/06/20 05:06:42.628, 86, 95, 63
2023/06/20 05:06:43.764, 87, 91, 60
2023/06/20 05:06:44.884, 83, 90, 62
2023/06/20 05:06:46.019, 86, 90, 61
2023/06/20 05:06:47.140, 84, 92, 60
2023/06/20 05:06:48.275, 87, 89, 61
2023/06/20 05:06:49.395, 86, 92, 64
2023/06/20 05:06:50.531, 86, 89, 61
2023/06/20 05:06:51.651, 90, 93, 63
2023/06/20 05:06:52.788, 85, 86, 63
2023/06/20 05:06:53.907, 88, 89, 62
2023/06/20 05:06:55.043, 84, 92, 64
2023/06/20 05:06:56.179, 85, 90, 61
2023/06/20 05:06:57.299, 86, 90, 62
2023/06/20 05:06:58.435, 84, 92, 60
2023/06/20 05:06:59.555, 86, 91, 62
2023/06/20 05:07:00.691, 95, 90, 61
2023/06/20 05:07:01.811, 87, 87, 61
2023/06/20 05:07:02.947, 87, 89, 63
2023/06/20 05:07:04.067, 88, 91, 65
2023/06/20 05:07:05.203, 83, 91, 61
2023/06/20 05:07:06.322, 84, 92, 63
2023/06/20 05:07:07.458, 85, 89, 58
2023/06/20 05:07:08.578, 87, 90, 59
2023/06/20 05:07:09.714, 84, 92, 62
2023/06/20 05:07:10.834, 86, 91, 60
2023/06/20 05:07:11.970, 89, 94, 59
2023/06/20 05:07:13.090, 85, 91, 61
2023/06/20 05:07:14.226, 85, 89, 63
2023/06/20 05:07:15.346, 84, 89, 60
2023/06/20 05:07:16.482, 84, 86, 62
2023/06/20 05:07:17.602, 85, 87, 60
2023/06/20 05:07:18.738, 86, 87, 61
2023/06/20 05:07:19.874, 88, 110, 62
2023/06/20 05:07:20.993, 85, 91, 60
2023/06/20 05:07:22.129, 85, 104, 62
2023/06/20 05:07:23.249, 85, 106, 65
2023/06/20 05:07:24.385, 85, 92, 58
2023/06/20 05:07:25.505, 84, 88, 64
2023/06/20 05:07:26.641, 85, 89, 59
2023/06/20 05:07:27.761, 84, 88, 62
2023/06/20 05:07:28.897, 85, 88, 60
2023/06/20 05:07:30.017, 83, 89, 61
2023/06/20 05:07:31.153, 86, 89, 62
2023/06/20 05:07:32.273, 86, 86, 66
2023/06/20 05:07:33.409, 86, 89, 63
2023/06/20 05:07:34.528, 85, 90, 61
2023/06/20 05:07:35.665, 85, 89, 62
2023/06/20 05:07:36.785, 83, 89, 63
2023/06/20 05:07:37.920, 85, 89, 61
2023/06/20 05:07:39.040, 82, 93, 58
2023/06/20 05:07:40.176, 86, 89, 63
2023/06/20 05:07:41.296, 86, 91, 61
2023/06/20 05:07:42.432, 84, 91, 66
2023/06/20 05:07:43.552, 87, 90, 63
2023/06/20 05:07:44.687, 85, 90, 63
2023/06/20 05:07:45.808, 87, 85, 63
2023/06/20 05:07:46.944, 83, 89, 59
2023/06/20 05:07:48.080, 84, 92, 61
2023/06/20 05:07:49.200, 82, 90, 56
2023/06/20 05:07:50.336, 84, 91, 60
2023/06/20 05:07:51.455, 84, 92, 61
2023/06/20 05:07:52.592, 85, 89, 59
2023/06/20 05:07:53.711, 84, 87, 62
2023/06/20 05:07:54.847, 86, 86, 61
2023/06/20 05:07:55.967, 85, 92, 60
2023/06/20 05:07:57.103, 84, 89, 59
2023/06/20 05:07:58.223, 85, 86, 63
2023/06/20 05:07:59.359, 83, 88, 58
2023/06/20 05:08:00.479, 84, 87, 58
2023/06/20 05:08:01.615, 86, 86, 59
2023/06/20 05:08:02.735, 84, 86, 59
2023/06/20 05:08:03.871, 87, 90, 63
2023/06/20 05:08:04.991, 85, 88, 59
2023/06/20 05:08:06.127, 82, 89, 60
2023/06/20 05:08:07.247, 85, 88, 62
2023/06/20 05:08:08.383, 85, 89, 59
2023/06/20 05:08:09.503, 84, 85, 61
2023/06/20 05:08:10.638, 85, 92, 60
2023/06/20 05:08:11.758, 87, 88, 58
2023/06/20 05:08:12.894, 83, 88, 60
2023/06/20 05:08:14.030, 83, 89, 61
2023/06/20 05:08:15.150, 83, 87, 60
2023/06/20 05:08:16.286, 86, 86, 64
2023/06/20 05:08:17.406, 82, 87, 60
2023/06/20 05:08:18.542, 83, 87, 58
2023/06/20 05:08:19.662, 84, 88, 61
2023/06/20 05:08:20.798, 82, 90, 61
2023/06/20 05:08:21.918, 86, 89, 59
2023/06/20 05:08:23.054, 86, 86, 62
2023/06/20 05:08:24.174, 84, 90, 61
2023/06/20 05:08:25.309, 82, 86, 62
2023/06/20 05:08:26.430, 84, 87, 62
2023/06/20 05:08:27.566, 85, 86, 59
2023/06/20 05:08:28.685, 84, 88, 59
2023/06/20 05:08:29.821, 83, 88, 61
2023/06/20 05:08:30.941, 83, 85, 60
2023/06/20 05:08:32.077, 84, 85, 60
2023/06/20 05:08:33.197, 84, 87, 59
2023/06/20 05:08:34.333, 84, 89, 61
2023/06/20 05:08:35.452, 84, 85, 61
2023/06/20 05:08:36.589, 83, 88, 60
2023/06/20 05:08:37.709, 84, 86, 62
2023/06/20 05:08:38.845, 82, 88, 59
2023/06/20 05:08:39.965, 88, 85, 56
2023/06/20 05:08:41.101, 85, 86, 61
2023/06/20 05:08:42.221, 83, 87, 56
2023/06/20 05:08:43.356, 85, 88, 60
2023/06/20 05:08:44.476, 84, 87, 59
2023/06/20 05:08:45.612, 86, 86, 58
2023/06/20 05:08:46.732, 82, 88, 58
2023/06/20 05:08:47.868, 83, 88, 59
2023/06/20 05:08:48.988, 83, 85, 61
2023/06/20 05:08:50.124, 84, 87, 61
2023/06/20 05:08:51.260, 85, 90, 58
2023/06/20 05:08:52.380, 81, 86, 70
2023/06/20 05:08:53.516, 83, 87, 60
2023/06/20 05:08:54.636, 83, 94, 60
2023/06/20 05:08:55.771, 84, 90, 60
2023/06/20 05:08:56.892, 85, 87, 62
2023/06/20 05:08:58.028, 83, 90, 60
2023/06/20 05:08:59.147, 82, 88, 61
2023/06/20 05:09:00.283, 82, 89, 57
2023/06/20 05:09:01.403, 84, 85, 57
2023/06/20 05:09:02.539, 86, 87, 61
2023/06/20 05:09:03.659, 83, 84, 61
2023/06/20 05:09:04.795, 83, 85, 57
2023/06/20 05:09:05.915, 82, 85, 59
2023/06/20 05:09:07.051, 84, 89, 56
2023/06/20 05:09:08.171, 85, 85, 57
2023/06/20 05:09:09.306, 83, 88, 60
2023/06/20 05:09:10.427, 84, 85, 63
2023/06/20 05:09:11.563, 83, 87, 69
2023/06/20 05:09:12.683, 85, 85, 62
2023/06/20 05:09:13.819, 86, 86, 60
2023/06/20 05:09:14.939, 84, 85, 63
2023/06/20 05:09:16.075, 85, 85, 60
2023/06/20 05:09:17.210, 84, 88, 62
2023/06/20 05:09:18.330, 83, 87, 59
2023/06/20 05:09:19.466, 83, 87, 60
2023/06/20 05:09:20.586, 84, 87, 57
2023/06/20 05:09:21.722, 84, 86, 58
2023/06/20 05:09:22.842, 82, 87, 59
2023/06/20 05:09:23.978, 84, 88, 58
2023/06/20 05:09:25.098, 84, 86, 61
2023/06/20 05:09:26.234, 84, 88, 57
2023/06/20 05:09:27.354, 83, 85, 60
2023/06/20 05:09:28.490, 82, 86, 60
2023/06/20 05:09:29.610, 83, 85, 60
2023/06/20 05:09:30.746, 83, 87, 62
2023/06/20 05:09:31.866, 83, 88, 60
2023/06/20 05:09:33.001, 85, 88, 61
2023/06/20 05:09:34.121, 83, 85, 58
2023/06/20 05:09:35.257, 84, 85, 60
2023/06/20 05:09:36.377, 80, 87, 61
2023/06/20 05:09:37.513, 83, 84, 59
2023/06/20 05:09:38.633, 83, 87, 58
2023/06/20 05:09:39.769, 82, 87, 61
2023/06/20 05:09:40.889, 84, 84, 59
2023/06/20 05:09:42.025, 84, 86, 61
2023/06/20 05:09:43.145, 83, 87, 58
2023/06/20 05:09:44.281, 81, 86, 61
2023/06/20 05:09:45.401, 83, 86, 60
2023/06/20 05:09:46.537, 85, 87, 59
2023/06/20 05:09:47.657, 83, 84, 56
2023/06/20 05:09:48.792, 84, 88, 59
2023/06/20 05:09:49.912, 84, 87, 59
2023/06/20 05:09:51.048, 83, 86, 61
2023/06/20 05:09:52.168, 83, 85, 59
2023/06/20 05:09:53.304, 85, 88, 60
2023/06/20 05:09:54.440, 84, 86, 58
2023/06/20 05:09:55.560, 85, 85, 59
2023/06/20 05:09:56.696, 83, 87, 59
2023/06/20 05:09:57.816, 84, 86, 57
2023/06/20 05:09:58.952, 103, 84, 59
2023/06/20 05:10:00.072, 95, 87, 60
2023/06/20 05:10:01.208, 84, 92, 60
2023/06/20 05:10:02.328, 82, 84, 60
2023/06/20 05:10:03.464, 84, 87, 60
2023/06/20 05:10:04.583, 83, 85, 55
2023/06/20 05:10:05.719, 85, 88, 57
2023/06/20 05:10:06.839, 83, 87, 61
2023/06/20 05:10:07.975, 84, 86, 58
2023/06/20 05:10:09.095, 83, 87, 58
2023/06/20 05:10:10.231, 81, 85, 63
2023/06/20 05:10:11.351, 83, 87, 64
2023/06/20 05:10:12.487, 84, 91, 71
2023/06/20 05:10:13.607, 85, 90, 62
2023/06/20 05:10:14.743, 86, 88, 61
2023/06/20 05:10:15.863, 86, 90, 59
2023/06/20 05:10:16.999, 87, 93, 64
2023/06/20 05:10:18.134, 90, 93, 65
2023/06/20 05:10:19.255, 89, 95, 71
2023/06/20 05:10:20.391, 89, 99, 69
2023/06/20 05:10:21.510, 88, 99, 67
2023/06/20 05:10:22.647, 87, 96, 67
2023/06/20 05:10:23.766, 88, 101, 63
2023/06/20 05:10:24.902, 93, 104, 67
2023/06/20 05:10:26.022, 95, 103, 69
2023/06/20 05:10:27.158, 93, 102, 67
2023/06/20 05:10:28.278, 94, 101, 72
2023/06/20 05:10:29.414, 95, 109, 73
2023/06/20 05:10:30.550, 96, 107, 80
2023/06/20 05:10:31.670, 96, 107, 70
2023/06/20 05:10:32.806, 96, 110, 71
2023/06/20 05:10:33.926, 94, 111, 72
2023/06/20 05:10:35.062, 98, 111, 72
2023/06/20 05:10:36.182, 98, 129, 74
2023/06/20 05:10:37.317, 99, 121, 82
2023/06/20 05:10:38.453, 101, 117, 77
2023/06/20 05:10:39.573, 100, 121, 76
2023/06/20 05:10:40.709, 100, 143, 79
2023/06/20 05:10:41.829, 102, 119, 77
2023/06/20 05:10:42.965, 105, 124, 77
2023/06/20 05:10:44.101, 107, 124, 77
2023/06/20 05:10:45.220, 100, 123, 78
2023/06/20 05:10:46.357, 105, 115, 77
2023/06/20 05:10:47.493, 104, 117, 78
2023/06/20 05:10:48.613, 115, 122, 78
2023/06/20 05:10:49.749, 134, 131, 75
2023/06/20 05:10:50.869, 109, 123, 81
2023/06/20 05:10:52.005, 105, 127, 83
2023/06/20 05:10:53.141, 110, 132, 88
2023/06/20 05:10:54.260, 121, 132, 85
2023/06/20 05:10:55.396, 108, 134, 83
2023/06/20 05:10:56.532, 109, 130, 83
2023/06/20 05:10:57.652, 111, 135, 83
2023/06/20 05:10:58.788, 112, 143, 83
2023/06/20 05:10:59.908, 110, 131, 87
2023/06/20 05:11:01.044, 112, 132, 84
2023/06/20 05:11:02.180, 117, 129, 79
2023/06/20 05:11:03.300, 114, 134, 83
2023/06/20 05:11:04.436, 108, 141, 85
2023/06/20 05:11:05.572, 120, 142, 86
2023/06/20 05:11:06.692, 113, 146, 84
2023/06/20 05:11:07.827, 108, 130, 83
2023/06/20 05:11:08.948, 113, 131, 83
2023/06/20 05:11:10.083, 112, 133, 85
2023/06/20 05:11:11.219, 114, 147, 87
2023/06/20 05:11:12.339, 111, 140, 88
2023/06/20 05:11:13.475, 118, 138, 84
2023/06/20 05:11:14.595, 119, 136, 89
2023/06/20 05:11:15.731, 114, 140, 91
2023/06/20 05:11:16.867, 117, 143, 87
2023/06/20 05:11:17.987, 118, 141, 85
2023/06/20 05:11:19.123, 114, 149, 88
2023/06/20 05:11:20.259, 121, 140, 86
2023/06/20 05:11:21.379, 115, 136, 87
2023/06/20 05:11:22.515, 110, 143, 88
2023/06/20 05:11:23.635, 119, 142, 86
2023/06/20 05:11:24.771, 119, 151, 93
2023/06/20 05:11:25.906, 115, 158, 88
2023/06/20 05:11:27.026, 115, 146, 89
2023/06/20 05:11:28.162, 123, 148, 92
2023/06/20 05:11:29.297, 123, 145, 91
2023/06/20 05:11:30.418, 121, 143, 91
2023/06/20 05:11:31.554, 122, 146, 89
2023/06/20 05:11:32.674, 118, 141, 91
2023/06/20 05:11:33.809, 120, 143, 92
2023/06/20 05:11:34.946, 130, 149, 92
2023/06/20 05:11:36.066, 121, 146, 90
2023/06/20 05:11:37.202, 115, 149, 89
2023/06/20 05:11:38.322, 118, 144, 93
2023/06/20 05:11:39.458, 123, 147, 103
2023/06/20 05:11:40.594, 118, 160, 102
2023/06/20 05:11:41.714, 123, 147, 97
2023/06/20 05:11:42.849, 117, 151, 99
2023/06/20 05:11:43.985, 134, 150, 98
2023/06/20 05:11:45.105, 118, 149, 92
2023/06/20 05:11:46.241, 118, 146, 91
2023/06/20 05:11:47.377, 125, 148, 90
2023/06/20 05:11:48.497, 128, 164, 93
2023/06/20 05:11:49.633, 117, 149, 97
2023/06/20 05:11:50.753, 122, 158, 93
2023/06/20 05:11:51.889, 121, 159, 93